Date String (YYYY-MM-DD hh:mm:ss) UTC,Instrument flags,Ambient pressure (hPa),Sample flow (lpm),Bypass flow (lpm),Sample temperature (°C),Ambient temperature (°C),ASC tube jacket temperature (°C),LED temperature (°C),Box temperature (°C),Sample RH (%),Span deviation,Mass concentration (μg/m³),Mass concentration (μg/m³),Mass concentration (μg/m³)
DateTimeUTC,F1_M11,P_M11,Q1_M11,Q2_M11,T1_M11,T2_M11,T3_M11,T4_M11,T5_M11,U1_M11,ZSPAN_M11,X0_M11,X2_M11,X1_M11
2022-09-22 21:00:00,,0827.5,5.00,0.00,29.4,28.0,00.0,38.1,31.2,27.3,-001.1,0010.86,0007.21,0006.84
2022-09-22 21:01:00,,0827.5,4.99,0.00,29.4,28.1,00.0,38.1,31.3,27.5,-000.8,0010.89,0007.30,0006.91
2022-09-22 21:02:00,,0827.5,5.00,0.00,29.4,28.1,00.0,38.1,31.3,27.6,-000.8,0010.88,0007.31,0006.93
2022-09-22 21:03:00,,0827.4,4.99,0.00,29.4,28.1,00.0,38.1,31.3,27.5,-000.9,0011.05,0007.38,0006.97
2022-09-22 21:04:00,,0827.2,5.00,0.00,29.4,28.1,00.0,38.1,31.3,27.5,-001.2,0011.18,0007.42,0006.99
2022-09-22 21:05:00,,0827.2,5.00,0.00,29.4,28.1,00.0,38.1,31.3,27.6,-001.5,0011.30,0007.46,0007.01
2022-09-22 21:06:00,,0827.1,5.00,0.00,29.4,28.1,00.0,38.1,31.3,27.3,-001.7,0011.30,0007.50,0007.06
2022-09-22 21:07:00,,0827.1,5.01,0.00,29.5,28.1,00.0,38.1,31.3,27.2,-002.0,0011.14,0007.53,0007.10
2022-09-22 21:08:00,,0827.1,4.99,0.00,29.5,28.1,00.0,38.1,31.3,27.2,-002.3,0010.86,0007.52,0007.10
2022-09-22 21:09:00,,0827.1,5.01,0.00,29.5,28.2,00.0,38.2,31.4,27.5,-002.5,0010.49,0007.48,0007.08
2022-09-22 21:10:00,,0827.2,4.99,0.00,29.5,28.2,00.0,38.2,31.4,27.8,-002.7,0010.40,0007.44,0007.05
2022-09-22 21:11:00,,0827.1,5.00,0.00,29.5,28.2,00.0,38.2,31.4,27.8,-003.1,0010.38,0007.40,0007.00
2022-09-22 21:12:00,,0826.9,5.00,0.00,29.5,28.2,00.0,38.2,31.4,27.6,-003.3,0010.35,0007.35,0006.95
2022-09-22 21:13:00,,0826.9,5.00,0.00,29.5,28.2,00.0,38.2,31.4,27.3,-003.3,0010.69,0007.34,0006.95
2022-09-22 21:14:00,,0826.9,5.00,0.00,29.5,28.2,00.0,38.2,31.4,27.1,-003.4,0010.74,0007.29,0006.92
2022-09-22 21:15:00,,0826.9,4.99,0.00,29.5,28.2,00.0,38.2,31.4,27.3,-003.5,0010.64,0007.27,0006.89
2022-09-22 21:16:00,,0827.0,5.01,0.00,29.6,28.2,00.0,38.2,31.4,27.5,-003.3,0010.55,0007.24,0006.88
2022-09-22 21:17:00,,0827.1,4.99,0.00,29.6,28.2,00.0,38.2,31.4,27.4,-003.2,0010.76,0007.23,0006.88
2022-09-22 21:18:00,,0826.8,4.99,0.00,29.6,28.2,00.0,38.3,31.5,27.4,-003.1,0010.83,0007.23,0006.88
2022-09-22 21:19:00,,0826.8,5.00,0.00,29.6,28.3,00.0,38.3,31.5,27.5,-003.2,0010.89,0007.25,0006.88
2022-09-22 21:20:00,,0826.8,5.01,0.00,29.6,28.3,00.0,38.3,31.5,27.3,-003.2,0010.96,0007.28,0006.90
2022-09-22 21:21:00,,0826.8,5.00,0.00,29.6,28.3,00.0,38.3,31.5,27.3,-003.1,0011.45,0007.32,0006.92
2022-09-22 21:22:00,,0826.8,5.00,0.00,29.6,28.3,00.0,38.3,31.5,27.4,-003.0,0011.96,0007.35,0006.94
2022-09-22 21:23:00,,0826.7,5.00,0.00,29.6,28.3,00.0,38.3,31.5,27.5,-003.0,0011.92,0007.35,0006.96
2022-09-22 21:24:00,,0826.8,4.99,0.00,29.6,28.3,00.0,38.3,31.5,27.5,-003.1,0011.75,0007.34,0006.95
2022-09-22 21:25:00,,0826.8,5.02,0.00,29.7,28.3,00.0,38.3,31.5,27.3,-003.4,0011.59,0007.37,0006.98
2022-09-22 21:26:00,,0826.8,4.99,0.00,29.7,28.3,00.0,38.3,31.5,27.4,-003.4,0012.07,0007.40,0007.02
2022-09-22 21:27:00,,0827.0,5.00,0.00,29.7,28.3,00.0,38.4,31.6,28.1,-003.2,0012.09,0007.41,0007.04
2022-09-22 21:28:00,,0826.8,4.99,0.00,29.7,28.4,00.0,38.4,31.6,28.6,-003.2,0011.90,0007.42,0007.04
2022-09-22 21:29:00,,0826.8,4.99,0.00,29.7,28.4,00.0,38.4,31.6,27.6,-003.1,0011.82,0007.43,0007.06
2022-09-22 21:30:00,,0827.2,5.01,0.00,29.7,28.4,00.0,38.4,31.6,27.1,-003.3,0011.90,0007.47,0007.08
2022-09-22 21:31:00,,0826.8,4.99,0.00,29.7,28.4,00.0,38.4,31.6,27.0,-003.4,0011.89,0007.48,0007.10
2022-09-22 21:32:00,,0826.9,5.01,0.00,29.7,28.4,00.0,38.4,31.6,27.0,-003.5,0011.78,0007.50,0007.13
2022-09-22 21:33:00,,0826.9,4.99,0.00,29.7,28.4,00.0,38.4,31.6,27.0,-003.5,0011.12,0007.55,0007.20
2022-09-22 21:34:00,,0827.0,5.00,0.00,29.7,28.4,00.0,38.4,31.6,27.1,-003.6,0011.43,0007.61,0007.26
2022-09-22 21:35:00,,0827.0,4.99,0.00,29.7,28.4,00.0,38.4,31.7,27.2,-003.6,0011.52,0007.65,0007.28
2022-09-22 21:36:00,,0826.8,5.01,0.00,29.8,28.4,00.0,38.4,31.7,27.1,-003.5,0011.56,0007.70,0007.32
2022-09-22 21:37:00,,0826.9,5.00,0.00,29.8,28.4,00.0,38.4,31.7,26.9,-003.4,0011.01,0007.72,0007.36
2022-09-22 21:38:00,,0826.9,4.99,0.00,29.8,28.4,00.0,38.5,31.7,26.9,-003.4,0011.03,0007.75,0007.40
2022-09-22 21:39:00,,0826.9,5.01,0.00,29.8,28.4,00.0,38.5,31.7,26.7,-003.5,0011.03,0007.79,0007.45
2022-09-22 21:40:00,,0826.9,4.99,0.00,29.8,28.4,00.0,38.5,31.7,26.8,-003.6,0011.18,0007.80,0007.47
2022-09-22 21:41:00,,0827.0,5.00,0.00,29.8,28.4,00.0,38.5,31.7,26.9,-003.3,0011.26,0007.80,0007.49
2022-09-22 21:42:00,,0827.2,5.01,0.00,29.8,28.4,00.0,38.5,31.7,26.9,-002.7,0011.30,0007.83,0007.52
2022-09-22 21:43:00,,0827.0,4.99,0.00,29.8,28.5,00.0,38.5,31.7,26.9,-002.6,0011.32,0007.85,0007.55
2022-09-22 21:44:00,,0827.1,5.00,0.00,29.8,28.5,00.0,38.5,31.7,26.9,-002.4,0011.25,0007.85,0007.56
2022-09-22 21:45:00,,0826.9,5.00,0.00,29.8,28.5,00.0,38.5,31.7,26.9,-002.4,0010.98,0007.84,0007.55
2022-09-22 21:46:00,,0826.8,5.00,0.00,29.8,28.5,00.0,38.5,31.7,26.9,-002.2,0011.00,0007.88,0007.60
2022-09-22 21:47:00,,0826.8,5.01,0.00,29.8,28.5,00.0,38.5,31.7,26.8,-002.3,0010.88,0007.89,0007.64
2022-09-22 21:48:00,,0826.8,4.99,0.00,29.9,28.5,00.0,38.5,31.7,26.8,-001.9,0010.89,0007.91,0007.64
2022-09-22 21:49:00,,0826.8,5.01,0.00,29.9,28.5,00.0,38.5,31.8,26.9,-002.0,0010.90,0007.91,0007.64
2022-09-22 21:50:00,,0827.0,4.99,0.00,29.9,28.5,00.0,38.6,31.8,27.1,-002.1,0010.91,0007.91,0007.63
2022-09-22 21:51:00,,0826.9,5.00,0.00,29.9,28.5,00.0,38.6,31.7,26.8,-002.3,0010.80,0007.93,0007.65
2022-09-22 21:52:00,,0826.9,5.01,0.00,29.9,28.6,00.0,38.6,31.7,26.7,-002.3,0010.72,0007.96,0007.69
2022-09-22 21:53:00,,0826.9,4.99,0.00,29.9,28.6,00.0,38.6,31.8,26.9,-002.6,0010.68,0007.96,0007.69
2022-09-22 21:54:00,,0826.9,5.01,0.00,29.9,28.6,00.0,38.6,31.8,27.1,-002.8,0010.63,0007.95,0007.70
2022-09-22 21:55:00,,0827.0,4.99,0.00,29.9,28.6,00.0,38.6,31.8,27.0,-002.9,0010.64,0007.96,0007.69
2022-09-22 21:56:00,,0826.9,5.01,0.00,29.9,28.6,00.0,38.6,31.8,27.0,-002.8,0010.89,0007.97,0007.70
2022-09-22 21:57:00,,0826.9,4.99,0.00,29.9,28.6,00.0,38.6,31.8,27.0,-002.8,0010.98,0007.96,0007.70
2022-09-22 21:58:00,,0827.0,5.01,0.00,29.9,28.6,00.0,38.6,31.8,26.9,-002.8,0010.97,0007.96,0007.70
2022-09-22 21:59:00,,0827.1,5.01,0.00,29.9,28.6,00.0,38.6,31.8,26.9,-002.9,0011.03,0007.97,0007.70
